Decatur, AL

5:04 PM CDT on August 16, 2017 (GMT -0500)
Pryor Regional

Weather History for KDCU - February, 2013

Change the Weather History Date:

Tuesday, February 26, 2013

  Actual Average Record
Temperature  
Mean Temperature 45 °F -  
Max Temperature 48 °F 57 °F 79 °F (1951)
Min Temperature 42 °F 32 °F 12 °F (1967)
Degree Days  
Heating Degree Days 20    
Moisture  
Dew Point 41 °F    
Average Humidity 82    
Maximum Humidity 96    
Minimum Humidity 61    
Precipitation  
Precipitation 0.42 in - - ()
Sea Level Pressure  
Sea Level Pressure 29.57 in    
Wind  
Wind Speed 16 mph (South)    
Max Wind Speed 22 mph    
Max Gust Speed 33 mph    
Visibility 8 miles    
Events Rain , Thunderstorm    
Averages and records for this station are not official NWS values.
T = Trace of Precipitation, MM = Missing Value Source: NWS Daily Summary

Daily Weather History Graph

Daily Weather History Graph

Search for Another Location

Airport or City:

Trip Planner

Search our weather history database for the weather conditions in past years. The results will help you decide how hot, cold, wet, or windy it might be!

Date:

Astronomy

Feb. 26, 2013 Rise Set
Actual Time 6:20 AM CST 5:41 PM CST
Civil Twilight 5:55 AM CST 6:06 PM CST
Nautical Twilight 5:25 AM CST 6:35 PM CST
Astronomical Twilight 4:56 AM CST 7:05 PM CST
Moon 6:52 PM CST (2/26) 6:26 AM CST (2/26)
Length of Visible Light 12h 11m
Length of Day
11h 20m
Full, 99% of the Moon is Illuminated
Feb 26
Full
Mar 4
Last Quarter
Mar 11
New
Mar 19
First Quarter
Mar 27
Full

Hourly Weather History & Observations

Time (CST) Temp. Windchill Dew Point Humidity Pressure Visibility Wind Dir Wind Speed Gust Speed Precip Events Conditions
12:25 AM 48.2 °F - 44.6 °F 87% 29.53 in 8.0 mi SE 21.9 mph 31.1 mph 0.03 in Thunderstorm Overcast
12:42 AM 48.2 °F - 44.6 °F 87% 29.50 in - ESE 17.3 mph 25.3 mph 0.12 in Rain , Thunderstorm Light Thunderstorms and Rain
12:53 AM 48.0 °F - 45.0 °F 89% 29.49 in 3.0 mi SE 18.4 mph 26.5 mph 0.20 in Rain Rain
1:12 AM 48.2 °F - 44.6 °F 87% 29.48 in 10.0 mi ESE 15.0 mph 24.2 mph 0.04 in Rain Light Rain
1:34 AM 48.2 °F - 44.6 °F 87% 29.50 in 9.0 mi SE 18.4 mph 27.6 mph 0.06 in Rain Light Rain
1:53 AM 48.0 °F - 45.0 °F 89% 29.49 in 10.0 mi SE 17.3 mph 27.6 mph 0.07 in Rain Light Rain
2:27 AM 48.2 °F - 44.6 °F 87% 29.48 in 9.0 mi SE 16.1 mph 33.4 mph 0.01 in Rain Light Rain
2:53 AM 48.0 °F - 45.0 °F 89% 29.47 in 10.0 mi SE 18.4 mph 27.6 mph 0.01 in   Overcast
3:08 AM 48.2 °F - 44.6 °F 87% 29.49 in 10.0 mi SSE 13.8 mph - N/A   Overcast
3:53 AM 48.0 °F - 45.0 °F 89% 29.47 in 10.0 mi SE 16.1 mph 26.5 mph N/A   Overcast
4:53 AM 48.0 °F - 45.0 °F 89% 29.45 in 10.0 mi SE 16.1 mph 25.3 mph N/A   Overcast
5:53 AM 48.0 °F - 45.0 °F 89% 29.46 in 10.0 mi SE 15.0 mph 21.9 mph N/A   Overcast
6:48 AM 48.2 °F - 44.6 °F 87% 29.49 in 7.0 mi South 8.1 mph - 0.09 in Rain Light Rain
6:53 AM 48.0 °F - 46.0 °F 93% 29.49 in 7.0 mi South 9.2 mph - 0.09 in Rain Light Rain
7:04 AM 48.2 °F - 46.4 °F 93% 29.49 in 5.0 mi SSE 11.5 mph - 0.01 in Rain Light Rain
7:28 AM 48.2 °F - 46.4 °F 93% 29.49 in 2.5 mi SSE 11.5 mph - 0.01 in Rain Light Rain
7:46 AM 48.2 °F - 46.4 °F 93% 29.50 in 3.0 mi SSE 11.5 mph - 0.01 in Rain Light Rain
7:50 AM 48.2 °F - 46.4 °F 93% 29.50 in 2.5 mi SSE 11.5 mph - 0.01 in Rain Light Rain
7:53 AM 48.0 °F - 46.9 °F 96% 29.50 in 2.0 mi SSE 10.4 mph - 0.01 in Rain Light Rain
7:57 AM 48.2 °F - 46.4 °F 93% 29.50 in 1.8 mi SSE 11.5 mph - 0.01 in Rain Light Rain
8:10 AM 48.2 °F - 46.4 °F 93% 29.50 in 2.0 mi SSE 13.8 mph - 0.01 in Rain Light Rain
8:41 AM 48.2 °F - 46.4 °F 93% 29.50 in 4.0 mi SSE 11.5 mph - 0.02 in Rain Light Rain
8:53 AM 46.9 °F - 42.1 °F 83% 29.52 in 7.0 mi SW 13.8 mph 21.9 mph 0.03 in Rain Light Rain
9:53 AM 46.9 °F - 41.0 °F 80% 29.53 in 10.0 mi SW 13.8 mph 20.7 mph 0.00 in   Overcast
10:53 AM 48.9 °F - 37.0 °F 64% 29.56 in 10.0 mi SW 15.0 mph 23.0 mph N/A   Mostly Cloudy
11:53 AM 46.9 °F - 36.0 °F 66% 29.59 in 10.0 mi WSW 12.7 mph 21.9 mph N/A   Overcast
12:53 PM 48.0 °F - 35.1 °F 61% 29.56 in 10.0 mi SW 20.7 mph 28.8 mph N/A   Overcast
1:53 PM 46.0 °F 38.8 °F 35.1 °F 66% 29.60 in 10.0 mi SW 18.4 mph 25.3 mph N/A   Overcast
2:53 PM 46.0 °F 40.2 °F 35.1 °F 66% 29.61 in 10.0 mi SSW 12.7 mph 25.3 mph N/A   Overcast
3:53 PM 44.1 °F 37.1 °F 37.0 °F 76% 29.64 in 7.0 mi WSW 15.0 mph 25.3 mph 0.00 in Rain Light Rain
4:00 PM 44.6 °F 38.8 °F 37.4 °F 76% 29.64 in 10.0 mi SW 11.5 mph 23.0 mph 0.00 in Rain Light Rain
4:09 PM 44.6 °F 37.4 °F 37.4 °F 76% 29.64 in 10.0 mi SW 16.1 mph 25.3 mph 0.00 in   Overcast
4:53 PM 43.0 °F 35.1 °F 36.0 °F 76% 29.66 in 9.0 mi SW 17.3 mph - 0.00 in Rain Light Rain
5:19 PM 42.8 °F 35.1 °F 37.4 °F 81% 29.67 in 7.0 mi WSW 16.1 mph 25.3 mph 0.01 in Rain Light Rain
5:53 PM 42.1 °F 35.7 °F 36.0 °F 79% 29.69 in 10.0 mi WSW 11.5 mph 20.7 mph 0.01 in   Overcast
6:53 PM 43.0 °F 35.7 °F 34.0 °F 71% 29.72 in 10.0 mi SW 15.0 mph 19.6 mph N/A   Overcast
7:53 PM 42.1 °F 33.9 °F 34.0 °F 73% 29.75 in 10.0 mi SW 17.3 mph 25.3 mph N/A   Overcast
8:53 PM 42.1 °F 35.2 °F 34.0 °F 73% 29.78 in 10.0 mi WSW 12.7 mph - 0.00 in   Overcast
9:24 PM 42.8 °F 38.0 °F 35.6 °F 76% 29.79 in 10.0 mi WSW 8.1 mph - N/A   Overcast
9:53 PM 42.1 °F 35.7 °F 34.0 °F 73% 29.79 in 10.0 mi SW 11.5 mph 18.4 mph N/A   Overcast
10:53 PM 42.1 °F 36.1 °F 33.1 °F 70% 29.80 in 10.0 mi WSW 10.4 mph - N/A   Overcast
11:53 PM 42.1 °F 36.1 °F 33.1 °F 70% 29.81 in 10.0 mi WSW 10.4 mph - N/A   Overcast